Content
SEND FEEDBACK

Daily
Averages
Monthly
Summary
Canada

VANCOUVER, BRITISH COLUMBIA


Home > North America > Canada > British Columbia
Elevation: 7 feet     Latitude: 49 11N     Longitude: 123 10W

WEATHER
 
SELECT A DAY
Number of Records: 254,921;   Date Range: 5/15/97 - 12/19/14
 
SHARE

PRINT THIS DATA

[ ← Previous Day ]
WEATHER ALMANAC - FEBRUARY 16, 2013
[ Next Day → ]
[ °C ]   °F
Weather ElementAverageHighLow
Temperature45.1 °F50 °F (11:15 am)41 °F (12:35 am)
Dewpoint39.5 °F42.8 °F (5:15 am)37.4 °F (12:15 pm)
Humidity81.8 %100 % (12:35 am)62 % (12:15 pm)
Barometer30.11 in30.16 in (12:35 am)30.07 in (2:15 pm)
Wind Speed6.6 mph15 mph (6:55 am)
Wind Gust20.7 mph (12:15 pm)
Weather ElementAverage
Visibility9.8 mi
Wind DirectionSSE (170.7 °)

Weather ElementTotal
Precipitation---
Heating Degree Days19.5 (Base 65)
Averaged from 61 records on February 16, 2013
WEATHER CONDITIONS BREAKOUT
WIND DIRECTION BREAKOUT
WEATHER BY HOUR - FEBRUARY 16, 2013
[ °C ]   °F
Local TimeTemperatureDewpointHumidityBarometerVisibilityWind DirectionWind SpeedGust SpeedPrecipitationEventsConditions
12:35 AM41.0 °F41.0 °F100 %30.16 in9.0 miCalmOvercast
12:55 AM41.0 °F41.0 °F100 %30.16 in9.0 miCalmScattered Clouds
1:15 AM41.0 °F41.0 °F100 %30.15 in9.0 miCalmPartly Cloudy
1:35 AM41.0 °F41.0 °F100 %30.14 in10.0 miCalmPartly Cloudy
1:55 AM41.0 °F41.0 °F100 %30.14 in10.0 miCalmScattered Clouds
2:15 AM41.0 °F41.0 °F100 %30.14 in10.0 miCalmMostly Cloudy
2:35 AM41.0 °F41.0 °F100 %30.13 in9.0 miCalmMostly Cloudy
2:55 AM41.0 °F41.0 °F100 %30.13 in10.0 miCalmOvercast
3:15 AM41.0 °F41.0 °F100 %30.13 in10.0 miCalmOvercast
3:35 AM41.0 °F41.0 °F100 %30.12 in9.0 miCalmRainLight Rain
3:55 AM41.0 °F41.0 °F100 %30.12 in9.0 miCalmRainLight Rain
4:15 AM42.8 °F41.0 °F93 %30.11 in10.0 miSouth (190°)10.4 mphMostly Cloudy
4:35 AM42.8 °F41.0 °F93 %30.10 in10.0 miSouth (190°)10.4 mphMostly Cloudy
5:15 AM42.8 °F42.8 °F100 %30.10 in10.0 miSouth (190°)11.5 mphOvercast
5:35 AM44.6 °F42.8 °F93 %30.09 in10.0 miSouth (180°)8.1 mphOvercast
5:55 AM44.6 °F42.8 °F93 %30.10 in10.0 miSouth (190°)10.4 mph16.1 mphOvercast
6:15 AM44.6 °F42.8 °F93 %30.09 in10.0 miSSW (200°)10.4 mphOvercast
6:35 AM44.6 °F42.8 °F93 %30.09 in10.0 miSSW (210°)13.8 mphMostly Cloudy
6:55 AM44.6 °F42.8 °F93 %30.08 in10.0 miSouth (190°)15.0 mphMostly Cloudy
7:15 AM44.6 °F42.8 °F93 %30.09 in10.0 miSSW (200°)11.5 mphMostly Cloudy
7:35 AM44.6 °F42.8 °F93 %30.09 in10.0 miSSW (200°)10.4 mphScattered Clouds
9:15 AM46.4 °F42.8 °F87 %30.11 in10.0 miSouth (190°)9.2 mphScattered Clouds
10:35 AM48.2 °F39.2 °F71 %30.10 in10.0 miSW (220°)10.4 mph17.3 mphPartly Cloudy
10:55 AM48.2 °F39.2 °F71 %30.11 in10.0 miSouth (190°)5.8 mphClear
11:15 AM50.0 °F39.2 °F66 %30.11 in10.0 miWSW (250°)3.5 mphClear
11:35 AM50.0 °F39.2 °F66 %30.11 in10.0 miSW (230°)6.9 mphClear
11:55 AM50.0 °F39.2 °F66 %30.11 in10.0 miSW (230°)11.5 mph17.3 mphClear
12:15 PM50.0 °F37.4 °F62 %30.09 in10.0 miSW (220°)12.7 mph20.7 mphClear
12:35 PM50.0 °F37.4 °F62 %30.10 in10.0 miSW (220°)6.9 mphClear
1:15 PM48.2 °F37.4 °F66 %30.09 in10.0 miWSW (250°)8.1 mphPartly Cloudy
1:35 PM48.2 °F37.4 °F66 %30.08 in10.0 miSW (220°)13.8 mphClear
1:55 PM48.2 °F37.4 °F66 %30.08 in10.0 miSW (220°)10.4 mph17.3 mphPartly Cloudy
2:15 PM48.2 °F37.4 °F66 %30.07 in10.0 miSSW (200°)11.5 mphScattered Clouds
2:35 PM48.2 °F37.4 °F66 %30.08 in10.0 miSSW (210°)6.9 mphScattered Clouds
2:55 PM48.2 °F37.4 °F66 %30.08 in10.0 miSW (220°)6.9 mphPartly Cloudy
3:15 PM48.2 °F37.4 °F66 %30.08 in10.0 miSSW (200°)6.9 mphRainLight Rain
3:35 PM46.4 °F39.2 °F76 %30.08 in10.0 miSouth (190°)8.1 mphRainLight Rain
3:55 PM46.4 °F39.2 °F76 %30.08 in10.0 miSouth (190°)8.1 mphClear
4:15 PM46.4 °F39.2 °F76 %30.08 in10.0 miSouth (190°)5.8 mphPartly Cloudy
4:35 PM46.4 °F39.2 °F76 %30.07 in10.0 miSouth (180°)6.9 mphScattered Clouds
4:55 PM46.4 °F39.2 °F76 %30.07 in10.0 miSSW (210°)6.9 mphMostly Cloudy
5:15 PM46.4 °F37.4 °F71 %30.07 in10.0 miSW (220°)9.2 mphMostly Cloudy
5:35 PM46.4 °F37.4 °F71 %30.07 in10.0 miSW (220°)5.8 mphMostly Cloudy
5:55 PM46.4 °F37.4 °F71 %30.08 in10.0 miWSW (240°)8.1 mphMostly Cloudy
6:15 PM46.4 °F37.4 °F71 %30.08 in10.0 miWSW (250°)8.1 mphOvercast
6:35 PM46.4 °F37.4 °F71 %30.09 in10.0 miWest (270°)8.1 mphOvercast
6:55 PM46.4 °F37.4 °F71 %30.09 in10.0 miWSW (250°)6.9 mphMostly Cloudy
7:15 PM46.4 °F37.4 °F71 %30.10 in10.0 miWSW (240°)8.1 mphRainLight Rain
7:55 PM46.4 °F37.4 °F71 %30.11 in9.0 miWSW (250°)4.6 mphRainLight Rain
8:15 PM44.6 °F39.2 °F81 %30.11 in10.0 miSSW (200°)5.8 mphMostly Cloudy
8:35 PM44.6 °F39.2 °F81 %30.11 in10.0 miSSW (210°)6.9 mphMostly Cloudy
8:55 PM44.6 °F39.2 °F81 %30.12 in7.0 miSW (230°)6.9 mphRainLight Rain
9:15 PM44.6 °F39.2 °F81 %30.12 in10.0 miSW (220°)5.8 mphOvercast
9:35 PM44.6 °F39.2 °F81 %30.13 in10.0 miSW (220°)3.5 mphOvercast
9:55 PM44.6 °F39.2 °F81 %30.13 in10.0 miSW (220°)5.8 mphMostly Cloudy
10:15 PM44.6 °F39.2 °F81 %30.13 in10.0 miSSW (200°)5.8 mphMostly Cloudy
10:35 PM42.8 °F39.2 °F87 %30.13 in10.0 miSSW (200°)6.9 mphMostly Cloudy
10:55 PM41.0 °F37.4 °F87 %30.14 in10.0 miCalmPartly Cloudy
11:15 PM42.8 °F37.4 °F81 %30.14 in10.0 miSSW (200°)3.5 mphScattered Clouds
11:35 PM42.8 °F39.2 °F87 %30.14 in10.0 miSouth (190°)6.9 mphMostly Cloudy
11:55 PM42.8 °F37.4 °F81 %30.14 in10.0 miSSW (210°)9.2 mphMostly Cloudy
Hourly data recorded from CZBB, located miles away from Vancouver, British Columbia







STORIES FROM OUR PARTNERS